User: anonymous   Login
Location: Theydon Bois
(51.6750°N, 0.1050°E)
Time: 10:36:27
(UTC+01:00)
Language:

Cosmos 1842 Rocket - Orbit

View from above orbital plane
View from above orbital plane
View from above satellite
View from above satellite

Ground track
Ground track

The orbit data is extracted from the following two-line orbital elements,

1 17912U 87038B   17296.56918612 +.00000088 +00000-0 +78271-5 0  9995
2 17912 082.4991 289.9112 0020650 163.6853 196.5032 14.82950204625679
Epoch (UTC): 23 October 2017 13:39:37
Eccentricity: 0.0020650
inclination: 82.4991°
perigee height: 605 km
apogee height: 634 km
right ascension of ascending node: 289.9112°
argument of perigee: 163.6853°
revolutions per day: 14.82950204
mean anomaly at epoch: 196.5032°
orbit number at epoch: 62567

The dashed part of the orbit path shows where the satellite is in the earth's shadow,  

DLR